TimeCST,TemperatureF,Dew PointF,Humidity,Sea Level PressureIn,VisibilityMPH,Wind Direction,Wind SpeedMPH,Gust SpeedMPH,PrecipitationIn,Events,Conditions,WindDirDegrees,DateUTC
12:15 AM,60.8,60.8,100,29.65,10.0,South,15.0,20.7,N/A,,Clear,170,2013-01-29 06:15:00
12:35 AM,60.8,60.8,100,29.64,10.0,South,16.1,-,N/A,,Partly Cloudy,180,2013-01-29 06:35:00
12:55 AM,60.8,60.8,100,29.63,10.0,South,16.1,-,N/A,,Clear,180,2013-01-29 06:55:00
1:15 AM,60.8,60.8,100,29.63,10.0,South,17.3,23.0,N/A,,Clear,180,2013-01-29 07:15:00
1:35 AM,60.8,60.8,100,29.61,10.0,South,18.4,26.5,N/A,,Partly Cloudy,170,2013-01-29 07:35:00
1:55 AM,60.8,60.8,100,29.60,10.0,South,18.4,23.0,N/A,,Partly Cloudy,170,2013-01-29 07:55:00
2:35 AM,62.6,62.6,100,29.59,10.0,South,19.6,25.3,N/A,,Scattered Clouds,170,2013-01-29 08:35:00
2:55 AM,62.6,62.6,100,29.58,10.0,South,20.7,28.8,N/A,,Partly Cloudy,170,2013-01-29 08:55:00
3:15 AM,62.6,62.6,100,29.58,7.0,South,19.6,26.5,N/A,,Scattered Clouds,180,2013-01-29 09:15:00
3:35 AM,62.6,62.6,100,29.58,6.0,South,20.7,32.2,N/A,Rain,Light Rain,170,2013-01-29 09:35:00
3:55 AM,62.6,62.6,100,29.58,10.0,South,21.9,26.5,N/A,,Scattered Clouds,170,2013-01-29 09:55:00
4:15 AM,62.6,62.6,100,29.58,10.0,South,17.3,25.3,N/A,,Scattered Clouds,180,2013-01-29 10:15:00
4:35 AM,60.8,60.8,100,29.58,10.0,South,15.0,-,N/A,,Mostly Cloudy,190,2013-01-29 10:35:00
4:55 AM,59.0,59.0,100,29.59,10.0,SW,8.1,-,N/A,,Overcast,230,2013-01-29 10:55:00
5:15 AM,59.0,59.0,100,29.58,10.0,South,15.0,19.6,N/A,,Mostly Cloudy,170,2013-01-29 11:15:00
5:35 AM,59.0,59.0,100,29.58,10.0,South,16.1,-,N/A,,Clear,170,2013-01-29 11:35:00
5:55 AM,59.0,59.0,100,29.59,10.0,South,16.1,24.2,N/A,,Clear,180,2013-01-29 11:55:00
6:15 AM,59.0,59.0,100,29.59,10.0,SW,6.9,-,N/A,,Scattered Clouds,220,2013-01-29 12:15:00
6:35 AM,59.0,59.0,100,29.59,10.0,West,6.9,-,N/A,,Mostly Cloudy,260,2013-01-29 12:35:00
6:55 AM,59.0,59.0,100,29.58,8.0,SSW,15.0,28.8,N/A,Rain,Light Rain,210,2013-01-29 12:55:00
7:15 AM,59.0,59.0,100,29.58,10.0,SW,6.9,-,N/A,Rain,Light Rain,230,2013-01-29 13:15:00
7:35 AM,57.2,57.2,100,29.58,10.0,SW,4.6,-,N/A,,Overcast,230,2013-01-29 13:35:00
7:55 AM,57.2,57.2,100,29.58,10.0,West,11.5,-,N/A,,Overcast,260,2013-01-29 13:55:00
8:15 AM,53.6,53.6,100,29.59,10.0,WNW,9.2,-,N/A,,Overcast,300,2013-01-29 14:15:00
8:35 AM,53.6,53.6,100,29.59,7.0,WNW,8.1,-,N/A,,Overcast,290,2013-01-29 14:35:00
8:55 AM,50.0,50.0,100,29.61,2.0,NW,10.4,-,N/A,,Overcast,320,2013-01-29 14:55:00
9:15 AM,46.4,46.4,100,29.62,2.5,NW,16.1,-,N/A,,Overcast,320,2013-01-29 15:15:00
9:35 AM,44.6,44.6,100,29.62,5.0,NNW,11.5,-,N/A,,Overcast,330,2013-01-29 15:35:00
9:55 AM,42.8,42.8,100,29.61,1.2,NNW,16.1,-,N/A,Rain,Rain,340,2013-01-29 15:55:00
10:15 AM,41.0,41.0,100,29.63,2.0,NW,9.2,-,N/A,Rain,Light Rain,310,2013-01-29 16:15:00
10:35 AM,41.0,41.0,100,29.64,4.0,WNW,10.4,-,N/A,Rain,Light Rain,300,2013-01-29 16:35:00
10:55 AM,41.0,41.0,100,29.66,1.5,West,8.1,-,N/A,Rain,Rain,280,2013-01-29 16:55:00
11:15 AM,41.0,41.0,100,29.65,1.2,NW,8.1,-,N/A,Rain,Heavy Rain,310,2013-01-29 17:15:00
11:35 AM,41.0,41.0,100,29.65,2.5,NW,8.1,-,N/A,Rain,Light Rain,310,2013-01-29 17:35:00
11:55 AM,41.0,41.0,100,29.63,1.8,NNW,6.9,-,N/A,Rain,Rain,340,2013-01-29 17:55:00
12:15 PM,39.2,39.2,100,29.60,2.0,North,8.1,-,N/A,Rain,Rain,350,2013-01-29 18:15:00
12:35 PM,39.2,39.2,100,29.58,5.0,NNE,5.8,-,N/A,Rain,Light Rain,20,2013-01-29 18:35:00
12:55 PM,39.2,39.2,100,29.55,10.0,ENE,8.1,-,N/A,,Overcast,60,2013-01-29 18:55:00
1:15 PM,39.2,39.2,100,29.59,10.0,NNW,6.9,-,N/A,Rain,Light Rain,330,2013-01-29 19:15:00
1:35 PM,39.2,39.2,100,29.58,7.0,NW,5.8,-,N/A,Rain,Light Rain,320,2013-01-29 19:35:00
1:55 PM,39.2,39.2,100,29.55,7.0,North,6.9,-,N/A,Rain,Light Rain,360,2013-01-29 19:55:00
2:15 PM,39.2,39.2,100,29.52,10.0,North,10.4,-,N/A,Rain,Light Rain,360,2013-01-29 20:15:00
2:35 PM,37.4,37.4,100,29.53,10.0,North,10.4,-,N/A,Rain,Light Rain,360,2013-01-29 20:35:00
2:55 PM,37.4,37.4,100,29.55,10.0,NNW,12.7,-,N/A,Rain,Light Rain,330,2013-01-29 20:55:00
3:15 PM,37.4,37.4,100,29.52,5.0,North,15.0,19.6,N/A,Rain,Light Rain,350,2013-01-29 21:15:00
3:35 PM,35.6,35.6,100,29.51,8.0,North,13.8,-,N/A,Rain,Light Rain,360,2013-01-29 21:35:00
3:55 PM,35.6,35.6,100,29.53,5.0,North,12.7,-,N/A,,Overcast,360,2013-01-29 21:55:00
4:15 PM,35.6,35.6,100,29.57,1.8,NNW,11.5,-,N/A,,Overcast,340,2013-01-29 22:15:00
4:35 PM,35.6,35.6,100,29.57,8.0,North,12.7,-,N/A,,Overcast,350,2013-01-29 22:35:00
4:55 PM,35.6,35.6,100,29.57,5.0,NNW,11.5,-,N/A,Rain,Light Rain,340,2013-01-29 22:55:00
5:15 PM,35.6,35.6,100,29.53,7.0,North,11.5,-,N/A,Rain,Light Rain,360,2013-01-29 23:15:00
5:35 PM,33.8,33.8,100,29.56,9.0,NNW,11.5,-,N/A,,Overcast,340,2013-01-29 23:35:00
5:55 PM,33.8,33.8,100,29.55,9.0,North,10.4,-,N/A,,Overcast,350,2013-01-29 23:55:00
6:15 PM,33.8,33.8,100,29.56,7.0,North,9.2,-,N/A,,Overcast,350,2013-01-30 00:15:00
6:35 PM,33.8,33.8,100,29.57,4.0,North,9.2,-,N/A,Rain,Light Rain,360,2013-01-30 00:35:00
6:55 PM,33.8,33.8,100,29.55,5.0,North,10.4,-,N/A,Rain,Light Rain,360,2013-01-30 00:55:00
7:15 PM,33.8,33.8,100,29.56,5.0,NNW,10.4,-,N/A,Rain,Light Rain,340,2013-01-30 01:15:00
7:35 PM,33.8,33.8,100,29.54,5.0,North,13.8,-,N/A,Rain,Light Rain,350,2013-01-30 01:35:00
7:55 PM,33.8,33.8,100,29.57,4.0,North,9.2,-,N/A,Rain,Light Rain,350,2013-01-30 01:55:00
8:15 PM,33.8,33.8,100,29.56,4.0,North,11.5,-,N/A,Rain,Light Rain,10,2013-01-30 02:15:00
8:35 PM,32.0,32.0,100,29.56,7.0,North,12.7,-,N/A,Rain,Light Rain,350,2013-01-30 02:35:00
8:55 PM,32.0,32.0,100,29.57,10.0,NNW,11.5,-,N/A,Rain,Light Rain,340,2013-01-30 02:55:00
9:15 PM,32.0,32.0,100,29.57,5.0,NNW,10.4,-,N/A,Rain,Light Rain,340,2013-01-30 03:15:00
9:35 PM,32.0,32.0,100,29.59,3.0,NNW,10.4,-,N/A,Rain,Rain,330,2013-01-30 03:35:00
9:55 PM,32.0,32.0,100,29.57,4.0,North,11.5,-,N/A,Rain,Rain,350,2013-01-30 03:55:00
10:15 PM,32.0,32.0,100,29.55,5.0,North,12.7,-,N/A,Rain,Light Rain,350,2013-01-30 04:15:00
10:35 PM,32.0,32.0,100,29.52,10.0,North,15.0,-,N/A,Rain,Light Rain,360,2013-01-30 04:35:00
10:55 PM,32.0,32.0,100,29.49,10.0,North,15.0,-,N/A,Rain,Light Rain,360,2013-01-30 04:55:00
11:15 PM,32.0,32.0,100,29.51,10.0,North,13.8,17.3,N/A,Rain,Light Rain,360,2013-01-30 05:15:00
11:35 PM,32.0,32.0,100,29.52,10.0,North,13.8,-,N/A,Rain,Light Rain,360,2013-01-30 05:35:00
11:55 PM,32.0,32.0,100,29.52,4.0,North,13.8,-,N/A,Rain,Light Rain,360,2013-01-30 05:55:00